timestamp,wind_dir_avg,wind_spd_max_dir,wind_spd_avg,wind_spd_gust,battery_voltage,lat,long
2019-01-19 00:00:00+00:00,230.0,235.0,3.87,4.89,,47.59359,-54.27349
2019-01-19 00:10:00+00:00,216.0,219.0,6.86,7.78,,47.59359,-54.27349
2019-01-19 00:20:00+00:00,213.0,217.0,8.44,9.38,,47.59359,-54.27349
2019-01-19 00:30:00+00:00,210.0,216.0,8.21,9.32,,47.59359,-54.27349
2019-01-19 00:40:00+00:00,205.0,201.0,8.44,9.27,,47.59359,-54.27349
2019-01-19 00:50:00+00:00,208.0,215.0,6.74,7.52,,47.59359,-54.27349
2019-01-19 01:00:00+00:00,207.0,208.0,7.77,8.43,,47.59359,-54.27349
2019-01-19 01:10:00+00:00,198.0,199.0,8.74,10.41,,47.59359,-54.27349
2019-01-19 01:20:00+00:00,204.0,212.0,7.91,8.85,,47.59359,-54.27349
2019-01-19 01:30:00+00:00,197.0,199.0,8.9,10.19,,47.59359,-54.27349
2019-01-19 01:40:00+00:00,206.0,208.0,9.48,10.48,,47.59359,-54.27349
2019-01-19 01:50:00+00:00,206.0,209.0,10.02,11.36,,47.59359,-54.27349
2019-01-19 02:00:00+00:00,207.0,210.0,9.27,10.79,,47.59359,-54.27349
2019-01-19 02:10:00+00:00,196.0,201.0,8.72,9.69,,47.59359,-54.27349
2019-01-19 02:20:00+00:00,192.0,193.0,8.31,9.91,,47.59359,-54.27349
2019-01-19 02:30:00+00:00,189.0,192.0,8.7,10.11,,47.59359,-54.27349
2019-01-19 02:40:00+00:00,192.0,191.0,10.24,11.65,,47.59359,-54.27349
2019-01-19 02:50:00+00:00,192.0,188.0,9.31,10.25,,47.59359,-54.27349
2019-01-19 03:00:00+00:00,193.0,189.0,9.86,11.22,,47.59359,-54.27349
2019-01-19 03:10:00+00:00,191.0,189.0,10.56,11.63,,47.59359,-54.27349
2019-01-19 03:20:00+00:00,195.0,201.0,9.64,10.67,,47.59359,-54.27349
2019-01-19 03:30:00+00:00,195.0,192.0,9.0,10.1,,47.59359,-54.27349
2019-01-19 03:40:00+00:00,197.0,197.0,9.75,10.57,,47.59359,-54.27349
2019-01-19 03:50:00+00:00,201.0,199.0,10.14,11.36,,47.59359,-54.27349
2019-01-19 04:00:00+00:00,193.0,199.0,8.62,9.74,,47.59359,-54.27349
2019-01-19 04:10:00+00:00,191.0,197.0,8.74,9.91,,47.59359,-54.27349
2019-01-19 04:20:00+00:00,180.0,181.0,10.11,11.52,,47.59359,-54.27349
2019-01-19 04:30:00+00:00,183.0,181.0,9.84,10.93,,47.59359,-54.27349
2019-01-19 04:40:00+00:00,185.0,186.0,10.43,11.67,,47.59359,-54.27349
2019-01-19 04:50:00+00:00,188.0,188.0,10.44,11.97,,47.59359,-54.27349
2019-01-19 05:00:00+00:00,186.0,181.0,9.34,10.39,,47.59359,-54.27349
2019-01-19 05:10:00+00:00,187.0,189.0,9.66,10.84,,47.59359,-54.27349
2019-01-19 05:20:00+00:00,194.0,196.0,9.83,11.34,,47.59359,-54.27349
2019-01-19 05:30:00+00:00,186.0,182.0,9.08,10.94,,47.59359,-54.27349
2019-01-19 05:40:00+00:00,193.0,192.0,11.7,13.66,,47.59359,-54.27349
2019-01-19 05:50:00+00:00,197.0,191.0,12.03,13.24,,47.59359,-54.27349
2019-01-19 06:00:00+00:00,195.0,195.0,10.05,12.85,,47.59359,-54.27349
2019-01-19 06:10:00+00:00,187.0,188.0,13.51,15.36,,47.59359,-54.27349
2019-01-19 06:20:00+00:00,194.0,188.0,10.59,14.45,,47.59359,-54.27349
2019-01-19 06:30:00+00:00,187.0,192.0,8.97,10.99,,47.59359,-54.27349
2019-01-19 06:40:00+00:00,189.0,192.0,8.87,9.84,,47.59359,-54.27349
2019-01-19 06:50:00+00:00,195.0,185.0,9.09,14.94,,47.59359,-54.27349
2019-01-19 07:00:00+00:00,190.0,184.0,9.7,13.69,,47.59359,-54.27349
2019-01-19 07:10:00+00:00,188.0,183.0,9.89,14.92,,47.59359,-54.27349
2019-01-19 07:20:00+00:00,185.0,184.0,8.21,9.22,,47.59359,-54.27349
2019-01-19 07:30:00+00:00,187.0,179.0,9.88,15.06,,47.59359,-54.27349
2019-01-19 07:40:00+00:00,184.0,179.0,10.73,14.63,,47.59359,-54.27349
2019-01-19 07:50:00+00:00,191.0,190.0,9.94,13.67,,47.59359,-54.27349
2019-01-19 08:00:00+00:00,195.0,194.0,9.95,13.79,,47.59359,-54.27349
2019-01-19 08:10:00+00:00,184.0,186.0,8.75,9.95,,47.59359,-54.27349
2019-01-19 08:20:00+00:00,185.0,183.0,10.72,13.03,,47.59359,-54.27349
2019-01-19 08:30:00+00:00,182.0,176.0,11.49,14.05,,47.59359,-54.27349
2019-01-19 08:40:00+00:00,182.0,182.0,8.72,9.65,,47.59359,-54.27349
2019-01-19 08:50:00+00:00,177.0,157.0,7.89,10.28,,47.59359,-54.27349
2019-01-19 09:00:00+00:00,179.0,174.0,9.43,11.11,,47.59359,-54.27349
2019-01-19 09:10:00+00:00,179.0,177.0,7.67,9.02,,47.59359,-54.27349
2019-01-19 09:20:00+00:00,173.0,177.0,10.44,14.83,,47.59359,-54.27349
2019-01-19 09:30:00+00:00,178.0,173.0,9.15,10.11,,47.59359,-54.27349
2019-01-19 09:40:00+00:00,174.0,171.0,9.53,13.34,,47.59359,-54.27349
2019-01-19 09:50:00+00:00,173.0,172.0,10.52,14.51,,47.59359,-54.27349
2019-01-19 10:00:00+00:00,175.0,178.0,7.9,8.93,,47.59359,-54.27349
2019-01-19 10:10:00+00:00,174.0,175.0,8.6,11.63,,47.59359,-54.27349
2019-01-19 10:20:00+00:00,162.0,159.0,5.8,6.39,,47.59359,-54.27349
2019-01-19 10:30:00+00:00,159.0,164.0,7.28,8.33,,47.59359,-54.27349
2019-01-19 10:40:00+00:00,164.0,163.0,7.85,9.5,,47.59359,-54.27349
2019-01-19 10:50:00+00:00,165.0,169.0,8.89,14.49,,47.59359,-54.27349
2019-01-19 11:00:00+00:00,170.0,166.0,8.64,10.27,,47.59359,-54.27349
2019-01-19 11:10:00+00:00,170.0,172.0,6.78,8.8,,47.59359,-54.27349
2019-01-19 11:20:00+00:00,158.0,159.0,8.83,10.88,,47.59359,-54.27349
2019-01-19 11:30:00+00:00,158.0,159.0,10.14,13.71,,47.59359,-54.27349
2019-01-19 11:40:00+00:00,161.0,164.0,12.36,14.67,,47.59359,-54.27349
2019-01-19 11:50:00+00:00,156.0,157.0,11.69,13.91,,47.59359,-54.27349
2019-01-19 12:00:00+00:00,161.0,167.0,8.82,10.28,,47.59359,-54.27349
2019-01-19 12:10:00+00:00,156.0,159.0,8.53,9.48,,47.59359,-54.27349
2019-01-19 12:20:00+00:00,160.0,157.0,8.04,9.13,,47.59359,-54.27349
2019-01-19 12:30:00+00:00,179.0,182.0,3.7,4.82,,47.59359,-54.27349
2019-01-19 12:40:00+00:00,169.0,172.0,5.69,6.68,,47.59359,-54.27349
2019-01-19 12:50:00+00:00,168.0,150.0,6.6,7.95,,47.59359,-54.27349
2019-01-19 13:00:00+00:00,177.0,184.0,5.1,6.7,,47.59359,-54.27349
2019-01-19 13:10:00+00:00,187.0,190.0,4.45,5.45,,47.59359,-54.27349
2019-01-19 13:20:00+00:00,225.0,224.0,3.79,4.36,,47.59359,-54.27349
2019-01-19 13:30:00+00:00,220.0,224.0,2.23,3.07,,47.59359,-54.27349
2019-01-19 13:40:00+00:00,213.0,210.0,1.99,2.32,,47.59359,-54.27349
2019-01-19 13:50:00+00:00,207.0,207.0,3.74,4.49,,47.59359,-54.27349
2019-01-19 14:00:00+00:00,201.0,195.0,3.66,4.48,,47.59359,-54.27349
2019-01-19 14:10:00+00:00,219.0,228.0,3.34,4.48,,47.59359,-54.27349
2019-01-19 14:20:00+00:00,227.0,226.0,3.19,3.44,,47.59359,-54.27349
2019-01-19 14:30:00+00:00,230.0,231.0,3.18,3.49,,47.59359,-54.27349
2019-01-19 14:40:00+00:00,227.0,227.0,2.91,3.26,,47.59359,-54.27349
2019-01-19 14:50:00+00:00,230.0,229.0,2.71,2.96,,47.59359,-54.27349
2019-01-19 15:00:00+00:00,243.0,252.0,3.09,3.57,,47.59359,-54.27349
2019-01-19 15:10:00+00:00,269.0,271.0,4.41,4.72,,47.59359,-54.27349
2019-01-19 15:20:00+00:00,261.0,263.0,4.0,4.4,,47.59359,-54.27349
2019-01-19 15:30:00+00:00,268.0,268.0,5.2,5.63,,47.59359,-54.27349
2019-01-19 15:40:00+00:00,273.0,272.0,4.95,5.32,,47.59359,-54.27349
2019-01-19 15:50:00+00:00,266.0,270.0,3.88,4.29,,47.59359,-54.27349
2019-01-19 16:00:00+00:00,266.0,265.0,5.13,5.63,,47.59359,-54.27349
2019-01-19 16:10:00+00:00,261.0,263.0,7.0,7.67,,47.59359,-54.27349
2019-01-19 16:20:00+00:00,263.0,264.0,6.97,7.54,,47.59359,-54.27349
2019-01-19 16:30:00+00:00,254.0,253.0,7.78,8.2,,47.59359,-54.27349
2019-01-19 16:40:00+00:00,250.0,253.0,8.21,9.05,,47.59359,-54.27349
2019-01-19 16:50:00+00:00,247.0,250.0,7.47,8.1,,47.59359,-54.27349
2019-01-19 17:00:00+00:00,249.0,240.0,6.91,7.79,,47.59359,-54.27349
2019-01-19 17:10:00+00:00,246.0,246.0,6.01,6.6,,47.59359,-54.27349
2019-01-19 17:20:00+00:00,272.0,272.0,6.09,6.57,,47.59359,-54.27349
2019-01-19 17:30:00+00:00,280.0,281.0,8.68,9.74,,47.59359,-54.27349
2019-01-19 17:40:00+00:00,282.0,278.0,8.66,10.31,,47.59359,-54.27349
2019-01-19 17:50:00+00:00,294.0,296.0,10.61,11.97,,47.59359,-54.27349
2019-01-19 18:00:00+00:00,297.0,301.0,8.26,9.87,,47.59359,-54.27349
2019-01-19 18:10:00+00:00,301.0,290.0,8.6,9.75,,47.59359,-54.27349
2019-01-19 18:20:00+00:00,302.0,301.0,7.2,8.24,,47.59359,-54.27349
2019-01-19 18:30:00+00:00,316.0,303.0,6.27,8.24,,47.59359,-54.27349
2019-01-19 18:40:00+00:00,316.0,312.0,9.35,10.78,,47.59359,-54.27349
2019-01-19 18:50:00+00:00,302.0,298.0,10.31,12.08,,47.59359,-54.27349
2019-01-19 19:00:00+00:00,299.0,304.0,7.87,8.93,,47.59359,-54.27349
2019-01-19 19:10:00+00:00,307.0,296.0,6.84,8.56,,47.59359,-54.27349
2019-01-19 19:20:00+00:00,317.0,315.0,8.88,9.77,,47.59359,-54.27349
2019-01-19 19:30:00+00:00,304.0,296.0,8.0,9.64,,47.59359,-54.27349
2019-01-19 19:40:00+00:00,310.0,310.0,10.16,12.96,,47.59359,-54.27349
2019-01-19 19:50:00+00:00,308.0,310.0,6.46,7.48,,47.59359,-54.27349
2019-01-19 20:00:00+00:00,328.0,330.0,8.38,10.0,,47.59359,-54.27349
2019-01-19 20:10:00+00:00,305.0,307.0,8.6,9.53,,47.59359,-54.27349
2019-01-19 20:20:00+00:00,314.0,313.0,8.74,9.88,,47.59359,-54.27349
2019-01-19 20:30:00+00:00,307.0,301.0,9.97,11.74,,47.59359,-54.27349
2019-01-19 20:40:00+00:00,324.0,321.0,6.42,8.46,,47.59359,-54.27349
2019-01-19 20:50:00+00:00,310.0,315.0,6.28,8.65,,47.59359,-54.27349
2019-01-19 21:00:00+00:00,316.0,308.0,5.0,6.91,,47.59359,-54.27349
2019-01-19 21:10:00+00:00,307.0,300.0,6.61,8.26,,47.59359,-54.27349
2019-01-19 21:20:00+00:00,312.0,311.0,7.17,9.03,,47.59359,-54.27349
2019-01-19 21:30:00+00:00,309.0,321.0,7.44,8.68,,47.59359,-54.27349
2019-01-19 21:40:00+00:00,309.0,309.0,8.47,10.49,,47.59359,-54.27349
2019-01-19 21:50:00+00:00,309.0,304.0,7.89,9.13,,47.59359,-54.27349
2019-01-19 22:00:00+00:00,299.0,298.0,6.97,8.74,,47.59359,-54.27349
2019-01-19 22:10:00+00:00,328.0,337.0,7.36,9.16,,47.59359,-54.27349
2019-01-19 22:20:00+00:00,325.0,330.0,10.0,13.22,,47.59359,-54.27349
2019-01-19 22:30:00+00:00,312.0,311.0,7.8,8.97,,47.59359,-54.27349
2019-01-19 22:40:00+00:00,326.0,325.0,6.14,7.3,,47.59359,-54.27349
2019-01-19 22:50:00+00:00,325.0,322.0,5.92,6.73,,47.59359,-54.27349
2019-01-19 23:00:00+00:00,324.0,316.0,7.17,9.12,,47.59359,-54.27349
2019-01-19 23:10:00+00:00,325.0,324.0,7.82,9.3,,47.59359,-54.27349
2019-01-19 23:20:00+00:00,328.0,327.0,8.09,9.43,,47.59359,-54.27349
2019-01-19 23:30:00+00:00,320.0,316.0,5.58,7.06,,47.59359,-54.27349
2019-01-19 23:40:00+00:00,340.0,341.0,5.47,6.79,,47.59359,-54.27349
2019-01-19 23:50:00+00:00,318.0,322.0,7.07,8.26,,47.59359,-54.27349
